Content
SEND FEEDBACK

United States of America Flag

GORDON, WISCONSIN


Home > North America > United States > Wisconsin
Elevation: 1066 feet     Latitude: 46 15N     Longitude: 091 48W

WEATHER
 
SELECT A DAY
Number of Records: 227,945;   Date Range: 7/1/96 - 3/22/16
 
SHARE

PRINT THIS DATA

[ ← Previous Day ]
WEATHER ALMANAC - JANUARY 21, 2013
[ Next Day → ]
[ °C ]   °F
Weather ElementAverageHighLow
Temperature-12.5 °F-7.6 °F (1:07 am)-18.9 °F (11:53 pm)
Dewpoint-22.3 °F-14.8 °F (1:07 am)-26 °F (8:53 am)
Humidity62.1 %76 % (9:41 pm)45 % (2:33 pm)
Barometer30.24 in30.33 in (11:53 pm)30.13 in (1:07 am)
Wind Speed4.5 mph11.5 mph (2:53 pm)
Wind Gust18.4 mph (8:53 am)
Weather ElementAverage
Visibility9.6 mi
Wind DirectionE (89.7 °)

Weather ElementTotal
Precipitation---
Heating Degree Days78.3 (Base 65)
Averaged from 38 records on January 21, 2013
WEATHER CONDITIONS BREAKOUT
WIND DIRECTION BREAKOUT
WEATHER BY HOUR - JANUARY 21, 2013
[ °C ]   °F
Local TimeTemperatureDewpointHumidityBarometerVisibilityWind DirectionWind SpeedGust SpeedPrecipitationEventsConditions
1:07 AM-7.6 °F-14.8 °F71 %30.13 in7.0 miVariable5.8 mphMostly Cloudy
1:41 AM-7.6 °F-16.6 °F65 %30.14 in10.0 miWNW (290°)5.8 mphMostly Cloudy
1:53 AM-8.0 °F-16.1 °F68 %30.26 in7.0 miVariable3.5 mphMostly Cloudy
2:10 AM-9.4 °F-16.6 °F71 %30.14 in10.0 miVariable6.9 mphScattered Clouds
2:53 AM-9.0 °F-18.9 °F62 %30.26 in10.0 miNW (310°)8.1 mphMostly Cloudy
3:10 AM-9.4 °F-20.2 °F59 %30.14 in10.0 miVariable5.8 mphOvercast
3:53 AM-11.0 °F-18.9 °F68 %30.26 in9.0 miWest (280°)5.8 mphMostly Cloudy
4:08 AM-11.2 °F-20.2 °F64 %30.14 in10.0 miVariable3.5 mphScattered Clouds
4:53 AM-11.9 °F-20.9 °F64 %30.27 in10.0 miVariable4.6 mphPartly Cloudy
5:53 AM-14.1 °F-22.0 °F68 %30.27 in10.0 miWest (270°)3.5 mphMostly Cloudy
6:07 AM-14.8 °F-22.0 °F70 %30.14 in10.0 miWest (270°)4.6 mphScattered Clouds
6:53 AM-14.1 °F-23.1 °F64 %30.27 in10.0 miVariable6.9 mphPartly Cloudy
7:23 AM-14.8 °F-23.8 °F64 %30.15 in10.0 miVariable4.6 mphMostly Cloudy
7:53 AM-15.0 °F-23.1 °F67 %30.29 in4.0 miVariable4.6 mphHaze
8:53 AM-15.0 °F-26.0 °F58 %30.31 in10.0 miWNW (290°)6.9 mph18.4 mphOvercast
9:00 AM-14.8 °F-25.6 °F58 %30.18 in10.0 miVariable3.5 mphOvercast
9:11 AM-14.8 °F-25.6 °F58 %30.19 in10.0 miWNW (300°)8.1 mphOvercast
9:53 AM-14.1 °F-25.1 °F58 %30.32 in9.0 miWNW (290°)9.2 mph18.4 mphOvercast
10:53 AM-13.0 °F-25.1 °F55 %30.32 in10.0 miVariable3.5 mphOvercast
11:13 AM-13.0 °F-25.6 °F53 %30.19 in10.0 miWest (280°)8.1 mphOvercast
11:53 AM-11.9 °F-24.0 °F55 %30.30 in10.0 miWNW (290°)8.1 mph17.3 mphOvercast
12:23 PM-11.2 °F-23.8 °F54 %30.16 in10.0 miWest (280°)8.1 mphOvercast
12:53 PM-9.9 °F-23.1 °F52 %30.28 in10.0 miVariable6.9 mphOvercast
1:53 PM-9.0 °F-23.1 °F50 %30.27 in10.0 miVariable5.8 mphOvercast
2:07 PM-9.4 °F-22.0 °F54 %30.14 in10.0 miVariable5.8 mphOvercast
2:33 PM-7.6 °F-23.8 °F45 %30.14 in10.0 miVariable6.9 mph16.1 mphOvercast
2:53 PM-8.0 °F-22.0 °F50 %30.27 in10.0 miWest (260°)11.5 mph17.3 mphOvercast
3:53 PM-9.0 °F-22.0 °F53 %30.27 in10.0 miVariable5.8 mphMostly Cloudy
4:53 PM-9.0 °F-22.0 °F53 %30.28 in10.0 miCalmClear
5:53 PM-11.9 °F-23.1 °F58 %30.30 in10.0 miCalmClear
6:53 PM-16.1 °F-23.1 °F71 %30.30 in10.0 miCalmClear
7:53 PM-18.0 °F-24.0 °F74 %30.31 in10.0 miCalmClear
8:53 PM-17.0 °F-24.0 °F70 %30.32 in10.0 miCalmPartly Cloudy
9:41 PM-18.4 °F-23.8 °F76 %30.18 in10.0 miCalmMostly Cloudy
9:53 PM-16.1 °F-24.0 °F67 %30.32 in10.0 miCalmMostly Cloudy
10:12 PM-14.8 °F-22.0 °F70 %30.19 in10.0 miCalmMostly Cloudy
10:53 PM-16.1 °F-23.1 °F71 %30.32 in10.0 miCalmClear
11:53 PM-18.9 °F-26.0 °F70 %30.33 in10.0 miCalmClear
Hourly data recorded from KHYR, located miles away from Gordon, Wisconsin




STORIES FROM OUR PARTNERS